QUI SOM?

ITER5 és una empresa especialitzada en el cronometratge i gestió esportiva. Ens adrecem a les institucions públiques i privades, als clubs i associacions esportives per tal de proporcionar els nostres coneixements i recursos.

INFORMACIÓ
  • Complex la Caparrella. Ed. CEEI. 2.3 - 25192 - LLEIDA
  • Lat.: 41.599045 | Long.: 0.581511
  • 635-164-197 / 654-555-394
  • info@iter5.cat

Resultats Xallenge Duaigües - Almatret - Llarga - Edició 2016

Pos. Dorsal Nom T.Oficial
1 58 LLUÍS LOZANO ROYO 01:59:24
2 200 IVÁN ROMERO SOTO 02:01:33
3 53 DANIEL LEBRON ESTRELLA 02:03:11
4 2 FRANCISCO ALAMINOS MORENO 02:03:13
5 193 ROBERT PEDROSA SOLA 02:03:31
6 106 XAVIER VAZQUEZ FORS 02:04:19
7 183 JORDI GALLEGO CASADÓ 02:05:46
8 79 RAMON PINILLA PEREZ 02:05:59
9 49 JUST IBAÑEZ BISMACH 02:07:19
10 52 DAVID LAZARO BRAVO 02:07:53
11 77 CARLOS PINA TORNER 02:08:43
12 22 DAVID CABALLÉ FONTANET 02:08:49
13 57 DANI LOUREIRO REVUELTA 02:08:53
14 207 JORDI TUGUES FENOSA 02:09:57
15 75 MIQUEL PEIRÓ CARDET 02:10:23
16 201 ROBERT SALUÉ CASANOVA 02:10:58
17 10 JOAN PERE ASENS LLOMBART 02:11:33
18 5 JAVI ALIFONSO MONTESO 02:11:48
19 192 EDUARD PALAU BORREGUERO 02:13:32
20 64 MAITRI MARTINEZ BECANA 02:14:35
21 175 OSCAR DONÉS ANTEQUERA 02:15:11
22 104 SALVADOR TRIAS SENTIS 02:15:15
23 100 MARIO SOLE ALBI 02:15:17
24 43 JÚRIC GIMENEZ ESQUERRE 02:17:43
25 221 JORDI BERTOMEU COLOMINES 02:18:03
26 101 CRISTOBAL TORRALBO ESTORACH 02:19:04
27 73 JOSEP RAMON PALAU MOLINS 02:19:13
28 91 CRISTIAN SALDAÑA ROCAMORA 02:19:19
29 107 BAPTISTE VIDAL MASSOT 02:20:19
30 65 FRANCISCO MARTINEZ GARCIA 02:20:48
31 505 HÉCTOR GUIRAL DE DIOS 02:22:09
32 110 ANDRÉS ZAPATER PUNTOS 02:22:20
33 46 DAVID GRIFOLL VIDAL 02:22:40
34 176 DANI EJARQUE VALLS 02:22:51
35 154 JONATAN SANCHEZ ARPAL 02:22:52
36 21 JOSEP BURGUÉS CLUA 02:23:58
37 109 ROBERT VISA MIR 02:25:52
38 41 HECTOR GARCIA RINCON 02:26:29
39 551 FRANCESC CAMINO LOPEZ 02:26:51
40 74 AMADOR PEGUEROLES PAEZ 02:27:22
41 185 JOSEP GORRES SALVADÓ 02:27:23
42 61 DAVID MARGALEF PALLARES 02:27:34
43 78 XAVIER PINILLA PEREZ 02:28:43
44 82 ALEX PLANA PORTOLES 02:29:31
45 261 JANO GIJON OLIVER 02:30:32
46 3 JORDI ALBÀ TEIXIDÓ 02:30:40
47 557 ÈRIC BERGA SESÉ 02:30:50
48 31 RAÚL FERNANDEZ ASENSIO 02:31:02
49 554 JORDI GUIXE XIXONS 02:31:07
50 574 ENRIC ARBOLI ANDRES 02:31:52
51 47 MAGÍ GUAL VALVERDE 02:32:29
52 12 ALBERT BALUÉ TREPAT 02:32:49
53 581 VICTOR GONZALO DIEZ 02:32:57
54 191 EFRÉN MUÑOZ NARCISO 02:33:50
55 178 SERGI FONT PAREJA 02:33:54
56 262 KIKO GRIÑÓ CASTELLÓ 02:33:57
57 15 RUBEN BELTRAN MAUREL 02:33:58
58 181 CARLES LLUIS FORTUNY FONTGIVELL 02:35:57
59 98 FELIX SIRACH VEGA 02:35:58
60 198 CARLES ROMAN SABATE 02:37:03
61 169 ALEX BATALLA RUBIO 02:37:40
62 23 ROGER CABOS TEIXIDO 02:38:14
63 226 LLUIS CABRERA ROCH 02:38:35
64 94 DAVID SANS GRAU 02:38:41
65 194 CLARA PIRLA RAMOS 02:38:47
66 37 IVAN GALAN ESTEBAN 02:38:52
67 174 ENRIC DOMENECH MARTINEZ 02:42:22
68 149 JOAQUÍN REYES VILLAGRASA 02:42:50
69 69 MARIO MIJANGOS RUIZ 02:44:00
70 165 ENRIQUE ALFARO PLAZA 02:44:00
71 6 XAVI ARAN GASCON 02:44:16
72 84 CARLES PUJOL LONCÀ 02:45:38
73 555 VICENTE BALERO OLLEE 02:46:00
74 204 TONI TARROCH ALVAREZ 02:46:05
75 115 DÍDAC ALONSO MOR 02:47:06
76 205 JORDI TEMPORAL 02:47:42
77 571 ANDREU RUBIO MONCADA 02:47:51
78 502 DANIEL BETRAN QUIBUS 02:48:02
79 220 IVAN BERTOMEU 02:48:45
80 103 RAUL TREMOSA SOLANS 02:49:38
81 136 DAVID MARTIN BARES 02:49:45
82 90 NANO ROMIA JOVÉ 02:50:18
83 186 TONI GRASA SERRADO 02:50:19
84 556 JOSEP MATEU CEBRIÀ 02:50:19
85 32 XAVIER FERRAN AGUSTÍ 02:50:19
86 86 HERIBERT RAMON MARTÍ 02:50:36
87 97 ANTONIO SILVA HIDALGO 02:50:50
88 240 ALBERTO COMIN ESTEBAN 02:51:25
89 36 JORDI FRANQUET BORULL 02:51:44
90 159 JAVIER SOROLLA GALINDO 02:51:46
91 68 MIQUEL MERCADÉ CUADRAT 02:51:48
92 118 DELFIN BARO CORTIELLA 02:53:05
93 80 JESUS PIRLA PASCUAL 02:53:05
94 105 FRANCESC VALLES QUINTILLA 02:53:20
95 268 NICOLAS MARTIN JARQUE 02:53:29
96 34 MARTA FILLAT FUENTES 02:53:32
97 223 EDUARDO BIENZOBAS PARDO 02:53:42
98 122 HÉCTOR CHINÉ ROCA 02:54:23
99 55 MIQUEL LLOVERA SOBRINO 02:56:55
100 562 LLUIS MATEU MONTAGUT 02:57:10
101 88 MANEL ROCA VISA 02:57:10
102 108 ALBERT VILANOVA FERRE 02:57:18
103 217 ROBERT BAGÉS VICENTE 02:57:18
104 117 AGUSTI ARBONES CABA 02:57:25
105 95 RAMON MARIA SECANELL SOLE 02:58:10
106 56 CARLOS LOPEZ GUILLEN 02:58:31
107 50 LUIS JORDAN SANJUAN 02:58:31
108 168 SERGI BARGALLO BORRAS 02:58:33
109 287 JOSEP SANTAPAU JARDI 02:59:00
110 24 JOAN JOSEP CALLAU GAVARRO 02:59:35
111 14 HARRY BARRAGÁN 03:00:22
112 126 MARC ESQUERDA SISCART 03:00:56
113 146 ANDRÉS PARGAÑA QUERENCIAS 03:01:10
114 30 ALBERT DONÉS I ANTEQUERA 03:01:13
115 231 JULIO CEDO PERELLO 03:01:19
116 76 JOSEP ROGELIO PENAS CASALS 03:01:37
117 195 SERGI PLAZA TEIXIDO 03:01:56
118 164 RAMON AGUSTI BADIA 03:01:56
119 60 PEPE LUENGO BAEZA 03:02:07
120 71 SEBASTIÀ MORELL PRATS 03:02:48
121 152 XAVIER ROIGE TORRELL 03:03:25
122 567 ENRIC GUARDIOLA FORNOS 03:04:36
123 267 XAVIER LOPEZ FERNANDEZ 03:04:59
124 199 JOSEP ROMERO IBARS 03:05:22
125 153 ANTONIO SAMPIETRO AGUSTI 03:07:11
126 291 RAMON SOBREVALS SALMONS 03:07:14
127 70 JORDI MIRALLES JUMILLA 03:07:57
128 142 VALENTI MORANCHO CANAL 03:08:17
129 113 JOSEP AIXALÀ GELONCH 03:09:58
130 51 ALEJANDRO LAFUENTE IBARZ 03:10:11
131 156 LUIS SERRANO JURADO 03:10:25
132 134 MARC JARNÉ BONEL 03:10:29
133 294 JOEL TORRES ARROYO 03:10:36
134 81 CESAR PLANA CABRERIZO 03:10:39
135 577 DAVID PORCEL RODRIGUEZ 03:10:51
136 18 EMILIO BODRO CABALLE 03:10:52
137 128 RAMON FARRE SAEZ 03:10:54
138 251 CARLOS FAVE ROYO 03:11:22
139 272 JOEL NAVARRO CABRERA 03:11:23
140 29 CRISTIAN DIEZ GARCIA 03:11:41
141 564 JOEL AVENILLAS BUITRAGO 03:11:41
142 39 SANTIAGO GARCIA CASTERAS 03:11:52
143 127 FELIX ESTEVES DAS DORES 03:13:55
144 171 JUAN CABEZAS PAÑART 03:14:43
145 7 MARC ARBIOL ROIGE 03:15:12
146 278 DANI PITARQUE CEPRIA 03:15:51
147 44 ALEX GOMEZ BALADA 03:16:29
148 8 RAUL ARBO BELTRAN 03:16:30
149 233 DANI CIBIAN CIBIAN 03:17:29
150 202 MARC SEGUES LLOVET 03:17:41
151 33 MARIO FIGUERES RIUS 03:18:10
152 67 SEBASTIÀ MÈNDEZ ALONSO 03:18:10
153 296 ALBERT VILA BADIA 03:18:12
154 99 DAVID SISTERE SALES 03:20:02
155 54 ROGER LLAO BRULL 03:20:07
156 16 ROBERTO BELTRAN MAUREL 03:20:18
157 170 MIGUEL BERNAD MORER 03:20:19
158 276 ESTEBAN PEREZ ALONSO 03:21:31
159 151 JORDI ROCA JOVÉ 03:21:55
160 112 JOEL AGUSTI PUIGVERT 03:22:28
161 208 MIQUEL ÀNGEL VALL PERMIQUEL 03:22:29
162 188 ROBERTO LAHOZ MIR 03:23:44
163 219 ANDREU BERNADO GALOFRE 03:23:44
164 222 ISAAC BERTOMEU FUSTE 03:24:42
165 173 CARLOS DIAS PIMENTA 03:24:45
166 172 DANIEL CAETANO VILAR 03:25:39
167 197 JUAN RODRIGUEZ VALDES 03:25:39
168 282 DAVID ROMERO PÉREZ 03:26:33
169 135 ANGEL LAFITA FORCADA 03:27:40
170 552 EMILI MARTINEZ ARQUERO 03:27:59
171 144 MARCOS PALAU OLIVER 03:28:15
172 158 SERGIO SOLER MONCADA 03:28:24
173 218 JOSE MANUEL BERENGUER ANDRES 03:28:55
174 120 JORDI CASTELLNOU ROCA 03:28:55
175 141 JOAN CARLES MORA MARIBLANCA 03:29:17
176 38 BENITO GALINDO PONTI 03:29:30
177 196 DOLORS ROCA BLANCH 03:30:13
178 163 ALBERTO VILLAGRASA CATALAN 03:30:49
179 561 JESUS FRANCO FABREGAS 03:31:06
180 275 JOSE ANTONIO PALAU OLIVER 03:37:38
181 133 JOSE MANUEL IBARZ IBARZ 03:37:39
182 263 AITOR GRIÑO MIRANDA 03:42:05
183 160 XAVI TORRENT MARTÍ 03:44:28
184 295 ALEXIS TORRES GODIA 03:45:40
185 236 DAVID COGOLLOS RIBERA 03:48:52
186 189 XAVI MINGUET ROCA 03:49:51
187 25 MARTA CAMÍ MOR 03:49:55
188 139 JORDI MIRO PENA 03:50:14
189 180 ALEX FORNOS JOVÉ 03:52:56
190 121 ORIOL CASTET MORELL 03:53:41
191 273 JORDI NAVARRO FARRE 03:53:42
192 572 IVAN PRATS CONSUL 03:55:50
193 89 SANTIAGO RODRIGUEZ IGLESIAS 03:56:02
194 242 JORDI CORDOBES DOÑA 03:56:19
195 9 XAVIER ARROYO PIÑOL 03:57:59
196 265 JUAN JOSÉ LARA CUENCA 04:01:44
197 280 ALBERT POUS ROSELLS 04:03:35
198 20 FERRAN BRULL I LLEÓ 04:04:39
199 66 ANGEL MENDEZ ALONSO 04:04:40
200 102 AITOR TORRES CABELLO 04:07:11
201 137 TONI MASIP RIBES 04:07:14
202 190 XAVIER MIR BUSOM 04:07:22
203 155 ALEIX SAURA PRATS 04:09:16
204 506 ÀLEX GUIRAL QUILEZ 04:11:03
205 111 DAVID AGUILERA LIÑAN 04:11:19
206 114 JORDI ALCÁNTARA TADEO 04:13:03
207 150 GERARD RIBÓ PORTA 04:13:05
208 293 JAVIER TOMAS TARRAGO 04:14:46
209 206 JORDI TOMAS TARRAGO 04:14:46
210 285 JOSEP SÁNCHEZ GARCIA 04:20:35
211 184 MATÍAS GARCÍA CASAS 04:20:39
212 211 MIGUEL ÁNGEL ALDANA ESTEBAN 04:20:39
213 290 RAUL SIRVENT PARDELL 04:20:42
214 238 JORDI COLL SANCHEZ 04:20:42
215 230 JORDI CASTELLÓ PORQUERES 04:22:05
216 85 BENJAMÍ QUIROGA ARBONES 04:22:10